Location: La Silve
(44.2414°N, 5.8889°E)
Time: 05:33:36
(UTC+00:00)

SL-8 Rocket - Pass Details

Date: 01 December 2020
Orbit: 958 x 990 km, 82.9° (Epoch: 27 January)

Event Time Altitude Azimuth Distance (km) Brightness Sun altitude
Rises 17:13:55 0° 349° (N) 3,680 6.9 -13.1°
Reaches altitude 10° 17:16:26 10° 348° (NNW) 2,733 6.3 -13.5°
Maximum altitude 17:22:40 71° 266° (W) 1,034 4.3 -14.6°
Drops below altitude 10° 17:28:54 10° 183° (S) 2,735 6.6 -15.7°
Sets 17:31:25 0° 181° (S) 3,682 7.2 -16.1°
